TimeCDT,TemperatureF,Dew PointF,Humidity,Sea Level PressureIn,VisibilityMPH,Wind Direction,Wind SpeedMPH,Gust SpeedMPH,PrecipitationIn,Events,Conditions,WindDirDegrees,DateUTC
12:56 AM,54.0,44.1,69,30.21,10.0,Calm,Calm,-,N/A,,Overcast,0,2013-03-30 05:56:00
1:56 AM,51.1,44.1,77,30.19,9.0,Calm,Calm,-,N/A,,Clear,0,2013-03-30 06:56:00
2:56 AM,50.0,44.1,80,30.19,7.0,Calm,Calm,-,N/A,,Clear,0,2013-03-30 07:56:00
3:56 AM,48.0,43.0,83,30.17,6.0,Calm,Calm,-,N/A,,Haze,0,2013-03-30 08:56:00
4:56 AM,48.0,43.0,83,30.18,5.0,Calm,Calm,-,N/A,,Haze,0,2013-03-30 09:56:00
5:56 AM,48.0,43.0,83,30.18,4.0,Calm,Calm,-,N/A,,Haze,0,2013-03-30 10:56:00
6:56 AM,46.9,42.1,83,30.19,3.0,Calm,Calm,-,N/A,,Haze,0,2013-03-30 11:56:00
7:56 AM,53.1,48.0,83,30.20,3.0,Calm,Calm,-,N/A,,Haze,0,2013-03-30 12:56:00
8:56 AM,61.0,53.1,75,30.21,5.0,Variable,3.5,-,N/A,,Haze,0,2013-03-30 13:56:00
9:56 AM,68.0,51.1,55,30.20,10.0,West,5.8,-,N/A,,Clear,280,2013-03-30 14:56:00
10:56 AM,72.0,50.0,46,30.19,10.0,WSW,5.8,-,N/A,,Clear,250,2013-03-30 15:56:00
11:56 AM,73.9,46.9,38,30.17,10.0,SSW,8.1,-,N/A,,Clear,200,2013-03-30 16:56:00
12:56 PM,77.0,46.0,33,30.14,10.0,SW,10.4,-,N/A,,Clear,220,2013-03-30 17:56:00
1:56 PM,75.9,46.0,35,30.12,10.0,Variable,6.9,-,N/A,,Scattered Clouds,0,2013-03-30 18:56:00
2:56 PM,75.9,48.0,37,30.10,10.0,SW,10.4,16.1,N/A,,Overcast,230,2013-03-30 19:56:00
3:56 PM,75.9,46.9,36,30.08,10.0,Variable,6.9,-,N/A,,Mostly Cloudy,0,2013-03-30 20:56:00
4:56 PM,75.0,46.9,37,30.07,10.0,SW,9.2,16.1,N/A,,Mostly Cloudy,230,2013-03-30 21:56:00
5:56 PM,73.9,48.9,41,30.07,10.0,SSW,8.1,-,N/A,,Clear,210,2013-03-30 22:56:00
6:56 PM,72.0,48.0,43,30.06,10.0,SW,8.1,-,N/A,,Clear,220,2013-03-30 23:56:00
7:56 PM,69.1,53.1,57,30.06,10.0,SW,3.5,-,N/A,,Overcast,220,2013-03-31 00:56:00
8:56 PM,66.9,55.0,66,30.07,10.0,Variable,4.6,-,N/A,,Clear,0,2013-03-31 01:56:00
9:56 PM,64.0,55.0,73,30.08,10.0,Calm,Calm,-,N/A,,Clear,0,2013-03-31 02:56:00
10:56 PM,63.0,55.0,75,30.09,10.0,Calm,Calm,-,N/A,,Clear,0,2013-03-31 03:56:00
11:56 PM,62.1,55.0,78,30.08,8.0,Calm,Calm,-,N/A,,Partly Cloudy,0,2013-03-31 04:56:00